Regional Weather Roundup
Issued by NWS

Home | Current Version | Previous Version | Text Only | Print | Product List | Glossary Off
Versions: 1 2 3 4 5 6 7 8 9 10 11 12 13 14 15 16 17 18 19 20 21 22 23 24 25 26 27 28 29 30 31 32 33 34 35 36 37 38 39 40 41 42 43 44 45 46 47 48 49 50

000
ASUS45 KBOI 260510
RWRID

IDAHO REGIONAL WEATHER ROUNDUP
NATIONAL WEATHER SERVICE BOISE ID
1100 PM MDT MON MAY 25 2015

NOTE: "FAIR" INDICATES FEW OR NO CLOUDS BELOW 12000 FEET
WITH NO SIGNIFICANT WEATHER AND/OR OBSTRUCTIONS TO VISIBILITY

IDZ012-014-260600-
SOUTHWEST IDAHO


CITY           SKY/WX    TMP DP  RH WIND       PRES   REMARKS
BOISE          MOCLDY    61  49  64 S7        29.89R
CALDWELL       MOCLDY    57  45  62 SE5       29.89R
MOUNTAIN HOME  CLOUDY    63  49  60 N9        29.90R
$$

IDZ016-017-260600-
SOUTHCENTRAL IDAHO


CITY           SKY/WX    TMP DP  RH WIND       PRES   REMARKS
BURLEY         CLOUDY    54  46  74 S8        29.93R
JEROME         CLOUDY    57  48  72 S6        29.94R
TWIN FALLS     MOCLDY    58  46  64 SW12      29.92R
$$

IDZ019>023-260600-
SOUTHEAST IDAHO


CITY           SKY/WX    TMP DP  RH WIND       PRES   REMARKS
IDAHO FALLS    MOCLDY    53  47  79 S15       29.97S
POCATELLO      PTCLDY    55  47  74 VRB6      29.96S
REXBURG        MOCLDY    52  43  71 S17G25    29.96R
$$

IDZ006-010-011-018-031-032-260600-
CENTRAL IDAHO MOUNTAINS


CITY           SKY/WX    TMP DP  RH WIND       PRES   REMARKS
MCCALL         CLEAR     47  41  80 NE5       29.95R
HAILEY         MOCLDY    52  46  82 NW7       29.97R
STANLEY          N/A     43  40  89 SE5       30.04R
SALMON         CLOUDY    52  48  87 CALM      29.97R
CHALLIS        CLOUDY    53  43  68 NW8       29.98R
$$

IDZ002-004-006-007-026-260600-
NORTHERN IDAHO


CITY           SKY/WX    TMP DP  RH WIND       PRES   REMARKS
LEWISTON       PTCLDY    63  49  60 S5        29.87R
LOWELL           N/A     54  52  93 N3        29.93R
COEUR D`ALENE  PTCLDY    54  48  82 CALM      29.90R
MULLAN PASS    MOCLDY    43  41  93 S5        29.99R
$$


USA.gov is the U.S. government's official web portal to all federal, state and local government web resources and services.